Location: Unspecified
(41.5000°N, 0.0000°E)
Time: 18:58:07
(UTC+00:00)

Vanguard 2 - Pass Details

Date: 23 June 2019
Orbit: 553 x 2938 km, 32.9° (Epoch: 19 July)

Event Time Altitude Azimuth Distance (km) Brightness Sun altitude
Rises 12:23:21 0° 268° (W) 4,103 11.3 71.4°
Reaches altitude 10° 12:26:00 10° 260° (W) 3,415 11.1 71.3°
Maximum altitude 12:34:05 36° 197° (SSW) 2,660 11.4 70.7°
Drops below altitude 10° 12:46:21 10° 138° (SE) 5,176 12.0 69.7°
Sets 12:51:29 0° 131° (SE) 6,465 12.3 69.2°
